• In Kazakhstan
  • List of Countries
  • For 7 days
  • Water Temperature
  • Satellite Maps
  • Weather Map
  • News
  • Weather Widgets
  • user-avatar
    Login

    Hourly Weather Denver

    Today, 24 November, Friday

    Time Temperature Precipitation Wind Pressure Humidity
    00:00 +11°C° 0 mm 4 mps 626 mmHg 35%
    01:00 +11°C° 0 mm 4 mps 625 mmHg 34%
    02:00 +10°C° 0 mm 4 mps 625 mmHg 34%
    03:00 +10°C° 0 mm 4 mps 625 mmHg 33%
    04:00 +10°C° 0 mm 4 mps 624 mmHg 33%
    05:00 +10°C° 0 mm 4 mps 624 mmHg 33%
    06:00 +10°C° 0 mm 4 mps 624 mmHg 33%
    07:00 +10°C° 0 mm 4 mps 624 mmHg 32%
    08:00 +11°C° 0 mm 4 mps 624 mmHg 32%
    09:00 +14°C° 0 mm 4 mps 625 mmHg 29%
    10:00 +17°C° 0 mm 4 mps 625 mmHg 25%
    11:00 +20°C° 0 mm 4 mps 625 mmHg 22%
    12:00 +20°C° 0 mm 5 mps 625 mmHg 23%
    13:00 +20°C° 0 mm 6 mps 625 mmHg 23%
    14:00 +20°C° 0 mm 8 mps 625 mmHg 24%
    15:00 +17°C° 0 mm 6 mps 625 mmHg 28%
    16:00 +14°C° 0 mm 5 mps 625 mmHg 33%
    17:00 +12°C° 0 mm 4 mps 625 mmHg 37%
    18:00 +11°C° 0 mm 3 mps 625 mmHg 41%
    19:00 +10°C° 0 mm 2 mps 625 mmHg 45%
    20:00 +8°C° 0 mm 2 mps 626 mmHg 49%
    21:00 +8°C° 0 mm 2 mps 626 mmHg 53%
    22:00 +8°C° 0 mm 1 mps 626 mmHg 56%
    23:00 +7°C° 0 mm 1 mps 627 mmHg 59%

    Tomorrow, 25 November, Saturday

    Time Temperature Precipitation Wind Pressure Humidity
    00:00 +7°C° 0 mm 1 mps 627 mmHg 59%
    01:00 +6°C° 0 mm 2 mps 627 mmHg 60%
    02:00 +6°C° 0 mm 2 mps 628 mmHg 60%
    03:00 +5°C° 0 mm 2 mps 628 mmHg 59%
    04:00 +5°C° 0 mm 2 mps 628 mmHg 59%
    05:00 +5°C° 0 mm 2 mps 628 mmHg 58%
    06:00 +5°C° 0 mm 2 mps 628 mmHg 54%
    07:00 +5°C° 0 mm 3 mps 628 mmHg 50%
    08:00 +7°C° 0 mm 3 mps 629 mmHg 45%
    09:00 +9°C° 0 mm 3 mps 629 mmHg 37%
    10:00 +12°C° 0 mm 3 mps 630 mmHg 29%
    11:00 +14°C° 0 mm 3 mps 631 mmHg 21%
    12:00 +16°C° 0 mm 3 mps 631 mmHg 20%
    13:00 +17°C° 0 mm 3 mps 631 mmHg 19%
    14:00 +17°C° 0 mm 3 mps 630 mmHg 18%
    15:00 +15°C° 0 mm 2 mps 630 mmHg 22%
    16:00 +13°C° 0 mm 2 mps 629 mmHg 26%
    17:00 +10°C° 0 mm 2 mps 629 mmHg 30%
    18:00 +10°C° 0 mm 2 mps 629 mmHg 30%
    19:00 +9°C° 0 mm 2 mps 630 mmHg 30%
    20:00 +9°C° 0 mm 3 mps 630 mmHg 29%
    21:00 +9°C° 0 mm 3 mps 630 mmHg 29%
    22:00 +9°C° 0 mm 3 mps 631 mmHg 30%
    23:00 +9°C° 0 mm 3 mps 631 mmHg 30%

    Day after tomorrow, 26 November, Sunday

    Time Temperature Precipitation Wind Pressure Humidity
    00:00 +9°C° 0 mm 3 mps 631 mmHg 31%
    01:00 +9°C° 0 mm 3 mps 630 mmHg 32%
    02:00 +9°C° 0 mm 3 mps 630 mmHg 33%
    03:00 +9°C° 0 mm 3 mps 630 mmHg 34%
    04:00 +9°C° 0 mm 3 mps 630 mmHg 35%
    05:00 +9°C° 0 mm 3 mps 630 mmHg 36%
    06:00 +10°C° 0 mm 3 mps 631 mmHg 36%
    07:00 +10°C° 0 mm 3 mps 631 mmHg 36%
    08:00 +11°C° 0 mm 3 mps 631 mmHg 36%
    09:00 +14°C° 0 mm 3 mps 632 mmHg 32%
    10:00 +17°C° 0 mm 3 mps 632 mmHg 27%
    11:00 +20°C° 0 mm 2 mps 632 mmHg 23%
    12:00 +21°C° 0 mm 2 mps 632 mmHg 21%
    13:00 +23°C° 0 mm 2 mps 631 mmHg 20%
    14:00 +24°C° 0 mm 2 mps 631 mmHg 18%
    15:00 +20°C° 0 mm 2 mps 630 mmHg 23%
    16:00 +17°C° 0 mm 2 mps 629 mmHg 27%
    17:00 +15°C° 0 mm 2 mps 628 mmHg 32%
    18:00 +13°C° 0 mm 3 mps 628 mmHg 33%
    19:00 +13°C° 0 mm 3 mps 628 mmHg 34%
    20:00 +12°C° 0 mm 3 mps 628 mmHg 35%
    21:00 +12°C° 0 mm 3 mps 627 mmHg 35%
    22:00 +11°C° 0 mm 4 mps 627 mmHg 35%
    23:00 +11°C° 0 mm 4 mps 626 mmHg 35%

    27 November, Monday

    Time Temperature Precipitation Wind Pressure Humidity
    00:00 +11°C° 0 mm 4 mps 626 mmHg 35%
    01:00 +10°C° 0 mm 4 mps 625 mmHg 35%
    02:00 +10°C° 0 mm 4 mps 625 mmHg 35%
    03:00 +10°C° 0 mm 4 mps 624 mmHg 35%
    04:00 +10°C° 0 mm 4 mps 624 mmHg 35%
    05:00 +8°C° 0 mm 4 mps 623 mmHg 35%
    06:00 +10°C° 0 mm 4 mps 623 mmHg 34%
    07:00 +10°C° 0 mm 4 mps 623 mmHg 34%
    08:00 +11°C° 0 mm 4 mps 623 mmHg 33%
    09:00 +13°C° 0 mm 4 mps 623 mmHg 27%
    10:00 +17°C° 0 mm 4 mps 623 mmHg 22%
    11:00 +20°C° 0 mm 5 mps 623 mmHg 16%
    12:00 +21°C° 0 mm 5 mps 622 mmHg 15%
    13:00 +22°C° 0 mm 5 mps 622 mmHg 14%
    14:00 +22°C° 0 mm 5 mps 621 mmHg 13%
    15:00 +19°C° 0 mm 4 mps 621 mmHg 18%
    16:00 +16°C° 0 mm 3 mps 620 mmHg 23%
    17:00 +13°C° 0 mm 2 mps 619 mmHg 28%
    18:00 +13°C° 0 mm 2 mps 619 mmHg 30%
    19:00 +12°C° 0 mm 2 mps 619 mmHg 32%
    20:00 +10°C° 0 mm 2 mps 619 mmHg 34%
    21:00 +10°C° 0 mm 2 mps 619 mmHg 35%
    22:00 +9°C° 0 mm 2 mps 619 mmHg 36%
    23:00 +9°C° 0 mm 2 mps 619 mmHg 37%

    28 November, Tuesday

    Time Temperature Precipitation Wind Pressure Humidity
    00:00 +7°C° 0 mm 3 mps 619 mmHg 46%
    01:00 +4°C° 0 mm 3 mps 620 mmHg 56%
    02:00 +3°C° 0 mm 4 mps 620 mmHg 66%
    03:00 +1°C° 0 mm 4 mps 620 mmHg 68%
    04:00 +1°C° 0 mm 4 mps 621 mmHg 71%
    05:00 0°C° 0 mm 4 mps 622 mmHg 73%
    06:00 0°C° 0.2 mm 4 mps 623 mmHg 74%
    07:00 0°C° 0.2 mm 4 mps 624 mmHg 74%
    08:00 -1°C° 0.2 mm 4 mps 625 mmHg 75%
    09:00 0°C° 0.1 mm 4 mps 625 mmHg 71%
    10:00 +2°C° 0.1 mm 3 mps 626 mmHg 66%
    11:00 +2°C° 0.1 mm 3 mps 626 mmHg 62%
    12:00 +3°C° 0 mm 3 mps 626 mmHg 57%
    13:00 +5°C° 0 mm 2 mps 626 mmHg 53%
    14:00 +5°C° 0 mm 2 mps 626 mmHg 48%
    15:00 +4°C° 0 mm 2 mps 626 mmHg 53%
    16:00 +4°C° 0 mm 1 mps 626 mmHg 57%
    17:00 +3°C° 0 mm 1 mps 626 mmHg 61%
    18:00 +3°C° 0 mm 1 mps 627 mmHg 61%
    19:00 +2°C° 0 mm 2 mps 627 mmHg 62%
    20:00 +1°C° 0 mm 3 mps 628 mmHg 62%
    21:00 +1°C° 0 mm 3 mps 628 mmHg 63%
    22:00 +1°C° 0 mm 3 mps 628 mmHg 64%
    23:00 0°C° 0 mm 3 mps 627 mmHg 64%

    29 November, Wednesday

    Time Temperature Precipitation Wind Pressure Humidity
    00:00 0°C° 0 mm 3 mps 627 mmHg 64%
    01:00 +1°C° 0 mm 2 mps 626 mmHg 63%
    02:00 +1°C° 0 mm 2 mps 626 mmHg 62%
    03:00 +1°C° 0 mm 2 mps 625 mmHg 61%
    04:00 0°C° 0 mm 3 mps 625 mmHg 59%
    05:00 0°C° 0 mm 3 mps 624 mmHg 57%
    06:00 +1°C° 0 mm 3 mps 625 mmHg 52%
    07:00 +2°C° 0 mm 2 mps 625 mmHg 47%
    08:00 +3°C° 0 mm 2 mps 625 mmHg 42%
    09:00 +6°C° 0 mm 2 mps 625 mmHg 35%
    10:00 +9°C° 0 mm 2 mps 625 mmHg 28%
    11:00 +12°C° 0 mm 2 mps 625 mmHg 21%
    12:00 +12°C° 0 mm 3 mps 625 mmHg 21%
    13:00 +12°C° 0 mm 3 mps 624 mmHg 21%
    14:00 +13°C° 0 mm 4 mps 624 mmHg 21%
    15:00 +10°C° 0 mm 3 mps 623 mmHg 28%
    16:00 +8°C° 0 mm 2 mps 623 mmHg 35%
    17:00 +5°C° 0 mm 2 mps 622 mmHg 42%
    18:00 +4°C° 0 mm 2 mps 623 mmHg 44%
    19:00 +4°C° 0 mm 2 mps 623 mmHg 47%
    20:00 +3°C° 0 mm 2 mps 624 mmHg 49%
    21:00 +2°C° 0 mm 3 mps 625 mmHg 49%
    22:00 +2°C° 0 mm 3 mps 626 mmHg 50%
    23:00 0°C° 0 mm 4 mps 627 mmHg 50%
    Show more